Hourly Data Report for October 22, 2016

All times are specified in Local Standard Time (LST). Add 1 hour to adjust for Daylight Saving Time where and when it is observed.

GJOA HAVEN A
NUNAVUT

68°38'08.000" N
95°51'01.000" W
46.90 m
2302337
71597
YHK

Download Data

Hourly Data (October 2016)
Hourly Data Report for October 22, 2016
Temp Definition
°C
Dew Point Temp Definition
°C
Rel Hum Definition
%
Wind Dir Definition
10's deg

Wind Spd Definition
km/h
Visibility Definition
km
Stn Press Definition
kPa
Hmdx Definition


Wind Chill Definition


Weather Definition


TIME
00:00 Legend Double Dagger -10.9 -12.5 88 11 17 16.1 101.92   -18 LegendNANA
01:00 Legend Double Dagger -10.3 -11.8 89 12 21 16.1 101.96   -18 LegendNANA
02:00 Legend Double Dagger -10.6 -12.9 83 13 17 16.1 101.99   -18 LegendNANA
03:00 Legend Double Dagger -10.6 -12.4 87 13 18 16.1 102.01   -18 LegendNANA
04:00 Legend Double Dagger -11.2 -13.1 86 12 18 16.1 102.04   -19 LegendNANA
05:00 Legend Double Dagger -10.8 -13.1 83 12 21 16.1 102.07   -19 LegendNANA
06:00 Legend Double Dagger -10.6 -13.3 81 12 21 16.1 102.09   -19 LegendNANA
07:00 Legend Double Dagger -11.2 -12.8 88 13 24 16.1 102.11   -20 LegendNANA
08:00 Legend Double Dagger -10.6 -12.4 87 15 17 16.1 102.17   -18 LegendNANA
09:00 Legend Double Dagger -11.1 -13.3 84 16 18 16.1 102.21   -19 LegendNANA
10:00 Legend Double Dagger -11.3 -13.4 85 16 18 16.1 102.26   -19 LegendNANA
11:00 Legend Double Dagger -11.2 -13.3 85 14 18 16.1 102.27   -19 LegendNANA
12:00 Legend Double Dagger -11.5 -13.0 89 14 22 16.1 102.31   -20 LegendNANA
13:00 Legend Double Dagger -11.5 -13.3 87 15 22 16.1 102.33   -20 Snow
14:00 Legend Double Dagger -11.4 -13.2 87 15 24 16.1 102.36   -20 Snow
15:00 Legend Double Dagger -12.5 -14.1 88 16 22 16.1 102.38   -21 LegendNANA
16:00 Legend Double Dagger -12.4 -13.9 89 16 22 16.1 102.42   -21 Snow
17:00 Legend Double Dagger -12.1 -13.6 89 15 21 16.1 102.42   -21 Snow
18:00 Legend Double Dagger -12.7 -14.2 89 16 21 16.1 102.41   -21 Snow
19:00 Legend Double Dagger -13.3 -14.6 90 17 17 16.1 102.44   -21 LegendNANA
20:00 Legend Double Dagger -12.6 -14.2 88 16 21 16.1 102.48   -21 LegendNANA
21:00 Legend Double Dagger -12.5 -13.8 90 18 18 16.1 102.50   -21 LegendNANA
22:00 Legend Double Dagger -12.5 -13.6 91 17 15 16.1 102.53   -20 LegendNANA
23:00 Legend Double Dagger -12.7 -13.6 93 17 17 16.1 102.56   -21 LegendNANA

Notes on Data Quality.

Legend

  • E = Estimated
  • M = Missing
  • NA = Not Available
  • ‡ = Partner data that is not subject to review by the National Climate Archives
Date modified: